DW4839 Weather Reports


time (UTC)temp
F
wind
direction
speed
knots
gust
knots
rain 1hr
in
rain 24hr
in
rain mn
in
humidity
%
barometer
mb
20260905040122 54 124 0.0 1.7 0.00 0.40 0.40 87 1015.9
20260905034600 54 142 0.0 1.7 0.00 0.40 0.40 87 1015.5
20260905033110 54 103 0.0 2.6 0.00 0.40 0.40 87 1015.4
20260905031613 54 0 0.0 1.7 0.00 0.40 0.40 88 1015.5
20260905030106 54 80 0.9 2.6 0.00 0.40 0.40 87 1015.4
20260905024602 54 145 0.0 1.7 0.00 0.40 0.40 89 1015.4
20260905023105 54 0 0.0 1.7 0.00 0.40 0.40 87 1015.4
20260905021603 55 0 0.0 2.6 0.00 0.40 0.40 87 1015.2
20260905020110 55 187 1.7 3.5 0.00 0.40 0.40 89 1015.0
20260905014604 56 143 0.9 2.6 0.00 0.40 0.40 89 1014.9
20260905013103 56 175 0.9 1.7 0.00 0.40 0.40 89 1014.9
20260905011606 56 141 0.0 1.7 0.00 0.40 0.40 89 1014.7
20260905010108 56 162 0.9 2.6 0.00 0.40 0.40 89 1014.7
20260905004613 56 174 0.0 5.2 0.00 0.40 0.40 90 1014.5
20260905003100 56 185 1.7 4.3 0.00 0.40 0.40 88 1014.5
20260905001558 58 211 1.7 3.5 0.00 0.40 0.40 85 1014.4
20260904234601 57 90 1.7 4.3 0.00 0.44 0.40 88 1014.5
20260904233106 57 165 0.9 5.2 0.00 0.44 0.40 87 1014.4
20260904231600 57 153 1.7 5.2 0.00 0.44 0.40 86 1014.2
20260904230112 55 153 0.9 4.3 0.01 0.44 0.40 86 1014.3
20260904224601 54 136 0.9 2.6 0.02 0.46 0.40 89 1014.2
20260904223106 54 172 0.9 1.7 0.11 0.46 0.40 86 1014.5
20260904221605 53 228 1.7 2.6 0.34 0.46 0.40 88 1014.4
20260904220116 53 237 0.9 1.7 0.34 0.45 0.39 86 1014.3
20260904214600 52 0 0.0 3.5 0.33 0.44 0.38 88 1014.0
20260904213106 55 206 4.3 19.1 0.24 0.35 0.29 87 1014.1
20260904211613 60 221 4.3 9.6 0.01 0.12 0.06 74 1013.8
20260904210104 62 0 0.0 2.6 0.00 0.11 0.05 70 1013.5
20260904204605 62 15 0.9 4.3 0.00 0.11 0.05 73 1013.4
20260904203104 61 5 0.9 1.7 0.00 0.11 0.05 72 1013.4
20260904201559 61 298 0.9 3.5 0.00 0.11 0.05 66 1013.3
20260904194603 62 329 0.0 2.6 0.00 0.11 0.05 73 1013.4
20260904193110 60 0 0.9 4.3 0.00 0.11 0.05 71 1013.5
20260904191602 60 82 0.0 4.3 0.00 0.11 0.05 73 1013.6
20260904190059 60 350 1.7 7.8 0.00 0.11 0.05 74 1013.6
20260904184604 60 13 2.6 5.2 0.00 0.13 0.05 75 1013.6
20260904183120 60 328 1.7 2.6 0.00 0.13 0.05 76 1013.4
20260904181603 59 22 1.7 4.3 0.00 0.13 0.05 79 1013.3
20260904180123 59 46 0.0 2.6 0.00 0.13 0.05 80 1013.3
20260904174609 60 9 1.7 7.8 0.00 0.13 0.05 78 1013.2
20260904173059 60 30 2.6 4.3 0.00 0.13 0.05 80 1013.1
20260904171604 59 35 1.7 4.3 0.00 0.13 0.05 80 1013.1
20260904170058 58 28 1.7 2.6 0.00 0.13 0.05 80 1013.0
20260904164607 56 115 0.9 2.6 0.00 0.13 0.05 83 1013.0
20260904163059 55 71 0.9 2.6 0.00 0.13 0.05 85 1012.8
20260904161634 54 0 0.9 2.6 0.01 0.13 0.05 85 1012.8
20260904160103 54 159 0.9 2.6 0.01 0.13 0.05 86 1012.8
20260904154603 53 109 0.0 1.7 0.01 0.15 0.05 87 1012.8
20260904153103 52 128 0.9 5.2 0.01 0.15 0.05 87 1012.8
20260904151557 52 78 0.0 5.2 0.00 0.14 0.04 86 1012.8
20260904150104 53 204 2.6 5.2 0.00 0.14 0.04 85 1012.6
20260904144609 52 77 1.7 4.3 0.00 0.18 0.04 86 1012.2
20260904143107 51 51 2.6 6.1 0.00 0.18 0.04 87 1012.1
20260904141602 51 37 2.6 4.3 0.00 0.18 0.04 87 1011.8
20260904140104 51 34 1.7 3.5 0.00 0.18 0.04 88 1012.0
20260904134603 51 66 1.7 4.3 0.00 0.20 0.04 87 1011.9
20260904133109 51 101 1.7 3.5 0.00 0.20 0.04 88 1011.7
20260904131606 51 65 2.6 7.8 0.00 0.20 0.04 89 1011.5
20260904130104 51 114 2.6 5.2 0.00 0.20 0.04 88 1011.6
20260904124610 51 187 1.7 3.5 0.00 0.20 0.04 87 1011.5
20260904123056 52 148 0.9 3.5 0.01 0.20 0.04 86 1011.2
20260904121600 51 96 0.9 3.5 0.02 0.20 0.04 87 1011.1
20260904120111 51 88 0.9 2.6 0.03 0.20 0.04 87 1011.0
20260904114610 51 92 0.9 3.5 0.03 0.20 0.04 87 1011.0
20260904113102 51 88 0.9 6.1 0.03 0.19 0.03 86 1010.8
20260904111603 52 134 0.9 3.5 0.02 0.18 0.02 85 1010.9
20260904110104 52 154 0.9 3.5 0.01 0.17 0.01 85 1010.9
20260904104556 52 198 0.9 5.2 0.01 0.17 0.01 84 1010.8
20260904103104 52 173 0.9 4.3 0.00 0.16 0.00 82 1010.8
20260904101605 53 155 0.9 2.6 0.00 0.16 0.00 81 1010.7
20260904100057 53 145 1.7 4.3 0.00 0.16 0.00 82 1010.7
20260904094604 53 147 1.7 3.5 0.00 0.16 0.00 82 1010.4
20260904093103 53 103 0.9 3.5 0.00 0.16 0.00 82 1010.3
20260904091601 53 142 0.9 2.6 0.00 0.16 0.00 83 1010.3
20260904090059 53 152 1.7 3.5 0.00 0.16 0.00 83 1010.2
20260904084557 53 160 0.9 1.7 0.00 0.18 0.00 84 1010.2
20260904083105 52 132 0.0 1.7 0.00 0.18 0.00 86 1010.3
20260904081602 53 177 1.7 3.5 0.00 0.18 0.00 84 1010.3
20260904080105 53 186 1.7 4.3 0.00 0.18 0.00 83 1010.2
20260904074557 54 180 1.7 5.2 0.00 0.19 0.00 83 1010.3
20260904073103 54 122 0.0 1.7 0.00 0.19 0.00 84 1010.3
20260904071601 53 128 0.9 3.5 0.00 0.19 0.00 85 1010.2
20260904070100 54 163 0.9 2.6 0.00 0.19 0.00 85 1010.2
20260904064630 54 84 0.0 2.6 0.00 0.20 0.19 85 1010.2
20260904063126 53 0 0.0 2.6 0.00 0.20 0.19 85 1010.2
20260904061601 53 106 0.9 1.7 0.00 0.20 0.19 85 1010.2
20260904060121 53 139 0.9 2.6 0.00 0.20 0.19 86 1010.2
20260904054604 54 140 1.7 4.3 0.00 0.20 0.19 86 1010.3
20260904053103 53 194 2.6 7.0 0.00 0.20 0.19 85 1010.4
20260904051600 53 156 3.5 6.1 0.00 0.20 0.19 86 1010.3
20260904050105 54 220 3.5 6.1 0.00 0.20 0.19 86 1010.4
20260904044601 54 186 3.5 7.0 0.00 0.20 0.19 85 1010.4
20260904043106 54 207 2.6 6.1 0.00 0.20 0.19 84 1010.5
20260904041601 54 194 2.6 4.3 0.00 0.20 0.19 85 1010.4